SL-8 DEB

Satellite information

Favourite Embed

Satellite Type and Status

DEBRISIN ORBIT

Key statistics

Satellite SL-8 DEB at a glance.

Uptime

17434

Days in orbit

Revolutions

≈ 14.8

Per day

Orbit

LEO

Low Earth Orbit

Inclination

74.0

Latest

Satellite identification and parameters

Extended collection of information and parameters for SL-8 DEB.

Object identification

Identified? True

Debris? True

Object name: SL-8 DEB

International designator: 1977-119D

Object number (NORAD): 10525

Object ID (CCSDS): 10525

Country: COMMONWEALTH OF INDEPENDENT STATES (CIS)

Current information (Y/N): Y

RCS size: SMALL

Orbital parameters

Period: 97.296 minutes

Inclination: 74.0153 deg

SMA: 7007.381 km

Apoapsis: 635.154 km

Periapsis: 623.337 km

RAAN: 287.9293 deg

Eccentricy: 0.00084319

Argument of periapsis: 12.384 deg

Mean anomaly: 347.7541 deg

Mean motion: 14.80025483 rev/day

Mean motion (dot): 0.00004144 rev/day2

B* drag term: 0.00055140707 1/REarth

Two-line elements (TLE)

Creation date: Sept. 8, 2025, 6:18 p.m.

Reference frame: TEME

Reference center: EARTH

Epoch: Sept. 8, 2025, 12:48 p.m. UTC

TLE line 0: 0 SL-8 DEB

TLE line 1: 1 10525U 77119D 25251.53394468 .00004144 00000-0 55141-3 0 9997

TLE line 2: 2 10525 74.0153 287.9293 0008432 12.3840 347.7541 14.80025483522375

Live tracking on map

Real-time ground track for satellite SL-8 DEB.

In-orbit conjunctions

A list of the most updated potential collisions computed for object SL-8 DEB.

Target Orbit TCA Probability of collision Miss distance Type
CZ-6A DEB SSO 2024-11-16 20:01:03 0.0001100855 503.0 (m) DEBRIS
COSMOS 2251 DEB LEO 2024-07-28 08:36:50 0.0004063084 138.0 (m) DEBRIS

Associated space launch

Military communications satellite

SL-8 DEB was lifted into orbit during the mission ‘Kosmos-3M | Strela-2M 16’, on board a Kosmos-3M space rocket.

The launch took place on Dec. 16, 1977, 4:25 a.m. from 132/1 (132L).

For more information about the launch, click the button.

Launch to space Kosmos-3M | Strela-2M 16
Kosmos-3M | Strela-2M 16

Agency: N/A

Status: Launch Successful

Launch date: Dec. 16, 1977, 4:25 a.m. UTC

Rocket: Kosmos-3M

Launch pad: 132/1 (132L)

Location: Plesetsk Cosmodrome, Russian Federation

...

Latest news about this satellite

There are no fresh news available about this satellite. Check back as we update our databases every day.


Newsletter sign-up

Weekly statistics, charts and insights to help you stay on top of the space industry.